Find Atlantic Bird 7

NORAD ID: 37816 Int'l Des: 2011-051 Owner: EUTSA Country: F operational
HEOCIRCULARGSOGEO

Live Position

Loading 3D Globe...

About Atlantic Bird 7

Description loading...

Upcoming Passes

Passes for default location (London). Set your location on the main map for personalized predictions.

Altitude History

Loading altitude history...

Two-Line Element Set

1 37816U 11051A 26107.22331939 -.00000054 00000-0 00000-0 0 9991
2 37816 0.0701 21.4092 0002629 104.9375 152.0915 1.00270888 53264
Epoch: Apr 17, 2026 • Age: 10 hours

Current Status

Altitude 35781.1 km
Velocity 3.08 km/s
Sub-Earth Point 0.04°N, 7.35°W
Launch Date Sep 24, 2011
Age 14.5 years
Type other

Technical Details

Classification Payload
Mass 4600.00 kg
Dry Mass 2500.00 kg
Total Mass 4600.00 kg
Length 6.30 m
Diameter 2.70 m
Span 39.00 m
Shape Box + 2 Pan
Manufacturer ASTT
Bus Type Eurostar 3000
Phase Status Renamed
Owner/State EUTSA/F

Most Searched